Orbital Elements at Epoch 2459200.5 (2020-Dec-17.0) TDB
Reference: JPL 27 (heliocentric ecliptic J2000)
Element | Value | Uncertainty (1-sigma) | Units |
e | .1857890628508372 | 1.1832e-08 | |
a | 2.550263605970093 | 1.0656e-08 | au |
q | 2.076452520594313 | 3.2471e-08 | au |
i | 8.287849862088308 | 5.6151e-07 | deg |
node | 293.4678039472696 | 1.8699e-06 | deg |
peri | 342.5410067208857 | 1.0647e-05 | deg |
M | 294.3029735315784 | 1.5519e-05 | deg |
tp | 2459471.968378750638 (2021-Sep-14.46837875) | 6.5171e-05 | TDB |
period | 1487.565291820392 4.07 | 9.3232e-06 2.553e-08 | d yr |
n | .2420061841853367 | 1.5168e-09 | deg/d |
Q | 3.024074691345874 | 1.2635e-08 | au |
|
| | Orbit Determination Parameters
Additional Information
|